This is the latest recevied weather packets stored in our database for station/object OE-11331. If no packets are shown the sender has not sent any weather packets the latest 10 day(s).
| Time | Temp. | Humidity | Pressure | Rain* | Wind** | Luminosity | Snow |
|---|---|---|---|---|---|---|---|
| 1787633732 | 14.44° C | 88% | 1013.8 hPa | 0 mm | - | 22 W/m² | - |
| 1787632905 | 14.44° C | 89% | 1013.8 hPa | 0 mm | - | 22 W/m² | - |
| 1787632532 | 14.44° C | 88% | 1013.7 hPa | 0 mm | - | 11 W/m² | - |
| 1787631932 | 14.44° C | 88% | 1013.9 hPa | 0 mm | - | 11 W/m² | - |
| 1787631105 | 14.44° C | 88% | 1013.9 hPa | 0 mm | - | 0 W/m² | - |
| 1787630732 | 14.44° C | 89% | 1014.1 hPa | 0 mm | - | 0 W/m² | - |
| 1787630132 | 14.44° C | 89% | 1013.8 hPa | 0 mm | - | 0 W/m² | - |
| 1787629532 | 14.44° C | 89% | 1014.3 hPa | 0 mm | - | 0 W/m² | - |
| 1787628932 | 14.44° C | 89% | 1014.6 hPa | 0 mm | - | 0 W/m² | - |
| 1787628331 | 14.44° C | 89% | 1014.3 hPa | 0 mm | - | 0 W/m² | - |
| 1787627504 | 14.44° C | 89% | 1014.4 hPa | 0 mm | - | 0 W/m² | - |
| 1787627131 | 14.44° C | 89% | 1014.6 hPa | 0 mm | - | 0 W/m² | - |
| 1787626532 | 15° C | 88% | 1014.7 hPa | 0 mm | - | 0 W/m² | - |
| 1787625704 | 15° C | 87% | 1014.2 hPa | 0 mm | - | 0 W/m² | - |
| 1787625350 | 15° C | 88% | 1014.2 hPa | 0 mm | - | 0 W/m² | - |
| 1787624731 | 14.44° C | 89% | 1014.5 hPa | 0 mm | - | 0 W/m² | - |
| 1787623904 | 15° C | 86% | 1014.2 hPa | 0 mm | - | 0 W/m² | - |
| 1787623531 | 15.56° C | 84% | 1014.2 hPa | 0 mm | - | 0 W/m² | - |
| 1787622932 | 15.56° C | 84% | 1014.3 hPa | 0 mm | - | 0 W/m² | - |
| 1787622105 | 15.56° C | 84% | 1014.6 hPa | 0 mm | - | 0 W/m² | - |
| 1787621732 | 15.56° C | 86% | 1014.7 hPa | 0 mm | - | 0 W/m² | - |
| 1787621132 | 15.56° C | 86% | 1015 hPa | 0 mm | - | 0 W/m² | - |
| 1787620304 | 15.56° C | 86% | 1014.9 hPa | 0 mm | - | 0 W/m² | - |
| 1787619932 | 15.56° C | 85% | 1014.9 hPa | 0 mm | - | 0 W/m² | - |
| 1787619332 | 16.11° C | 84% | 1014.9 hPa | 0 mm | - | 0 W/m² | - |
* Rain latest hour (hover to see other rain measurements)
** Current wind speed in m/s (hover to see current wind gust speed)